Tracking 20241 objects as of 26-Jan-2020
HD Live streaming from Space Station
objects crossing your sky now

FENGYUN 1C DEB

Track FENGYUN 1C DEB now!
10-day predictions


NORAD ID: 38793
Int'l Code: 1999-025EUH
Perigee: 678.6 km
Apogee: 834.7 km
Inclination: 98.7 °
Period: 99.8 minutes
Semi major axis: 7127 km
RCS: 0.0014 m2 (small)
Launch date: May 10, 1999
Source: People's Republic of China (PRC)
Launch site: Taiyaun Space Center, China (TSC)

Note: This is SATELLITE DEBRIS
aabbcc
Your satellite tracking list
Your tracking list is empty




NASA's NSSDC Master Catalog

Two Line Element Set (TLE):
1 38793U 99025EUH 20026.16644699 +.00000838 +00000-0 +24835-3 0  9994
2 38793 098.6728 101.9730 0109509 315.5960 073.4002 14.42717111312120
Source of the keplerian elements: AFSPC